User: anonymous   Login
Location: Unspecified
(0.0000°N, 0.0000°E)
Time: 21:46:30
(UTC+00:00)
Language:

Kosmos-2229 - Orbit

View from above orbital plane
View from above orbital plane
View from above satellite
View from above satellite

Ground track
Ground track

The orbit data is extracted from the following two-line orbital elements,

1 22300U 92095  A 93010.41127156  .00380216 +85000-5 +51951-3   00254
2 22300 062.8060 204.7624 0108547 111.4285 250.2119 15.95206248001871
Epoch (UTC): 10 January 1993 09:52:13
Eccentricity: 0.0108547
inclination: 62.8060°
perigee height: 215 km
apogee height: 360 km
right ascension of ascending node: 204.7624°
argument of perigee: 111.4285°
revolutions per day: 15.95206248
mean anomaly at epoch: 250.2119°
orbit number at epoch: 187

The dashed part of the orbit path shows where the satellite is in the earth's shadow,  

DLR